EN

Hourly Weather Abasolo

Today, 13 June, Sunday

Time Temperature Precipitation Wind Pressure Humidity
00:00 +26°C° 0.1 mm 1 mps 754 mmHg 87%
01:00 +26°C° 0.1 mm 1 mps 753 mmHg 87%
02:00 +24°C° 0.1 mm 0 mps 753 mmHg 88%
03:00 +24°C° 0 mm 0 mps 753 mmHg 87%
04:00 +24°C° 0 mm 0 mps 753 mmHg 87%
05:00 +24°C° 0 mm 0 mps 754 mmHg 87%
06:00 +26°C° 0 mm 0 mps 754 mmHg 78%
07:00 +28°C° 0 mm 0 mps 754 mmHg 68%
08:00 +32°C° 0 mm 1 mps 755 mmHg 58%
09:00 +33°C° 0 mm 1 mps 754 mmHg 52%
10:00 +36°C° 0 mm 2 mps 754 mmHg 46%
11:00 +38°C° 0 mm 3 mps 754 mmHg 40%
12:00 +38°C° 0 mm 4 mps 753 mmHg 40%
13:00 +39°C° 0 mm 5 mps 753 mmHg 40%
14:00 +39°C° 0 mm 6 mps 752 mmHg 40%
15:00 +38°C° 0 mm 6 mps 752 mmHg 45%
16:00 +35°C° 0 mm 7 mps 753 mmHg 51%
17:00 +34°C° 0 mm 7 mps 753 mmHg 57%
18:00 +32°C° 0 mm 5 mps 753 mmHg 65%
19:00 +30°C° 0 mm 4 mps 753 mmHg 73%
20:00 +28°C° 0 mm 3 mps 754 mmHg 81%
21:00 +28°C° 0 mm 2 mps 754 mmHg 85%
22:00 +27°C° 0 mm 1 mps 754 mmHg 88%
23:00 +25°C° 0 mm 0 mps 754 mmHg 91%

Tomorrow, 14 June, Monday

Time Temperature Precipitation Wind Pressure Humidity
00:00 +24°C° 0 mm 0 mps 754 mmHg 92%
01:00 +26°C° 0 mm 1 mps 754 mmHg 93%
02:00 +26°C° 0 mm 1 mps 753 mmHg 93%
03:00 +26°C° 0 mm 1 mps 753 mmHg 93%
04:00 +25°C° 0 mm 1 mps 753 mmHg 93%
05:00 +25°C° 0 mm 1 mps 753 mmHg 92%
06:00 +27°C° 0 mm 1 mps 754 mmHg 81%
07:00 +30°C° 0 mm 1 mps 754 mmHg 69%
08:00 +32°C° 0 mm 1 mps 754 mmHg 58%
09:00 +33°C° 0 mm 1 mps 754 mmHg 51%
10:00 +36°C° 0 mm 2 mps 754 mmHg 44%
11:00 +38°C° 0 mm 3 mps 753 mmHg 37%
12:00 +38°C° 0 mm 4 mps 753 mmHg 37%
13:00 +40°C° 0 mm 5 mps 752 mmHg 36%
14:00 +40°C° 0 mm 6 mps 752 mmHg 35%
15:00 +39°C° 0 mm 6 mps 752 mmHg 40%
16:00 +36°C° 0 mm 6 mps 752 mmHg 45%
17:00 +34°C° 0 mm 6 mps 752 mmHg 50%
18:00 +33°C° 0 mm 5 mps 753 mmHg 60%
19:00 +30°C° 0 mm 4 mps 753 mmHg 71%
20:00 +28°C° 0 mm 3 mps 754 mmHg 81%
21:00 +27°C° 0 mm 3 mps 754 mmHg 83%
22:00 +27°C° 0 mm 2 mps 754 mmHg 86%
23:00 +26°C° 0 mm 2 mps 754 mmHg 88%

Day after tomorrow, 15 June, Tuesday

Time Temperature Precipitation Wind Pressure Humidity
00:00 +26°C° 0 mm 1 mps 754 mmHg 88%
01:00 +26°C° 0 mm 1 mps 754 mmHg 89%
02:00 +26°C° 0 mm 1 mps 753 mmHg 89%
03:00 +25°C° 0 mm 1 mps 754 mmHg 89%
04:00 +25°C° 0 mm 1 mps 754 mmHg 90%
05:00 +25°C° 0 mm 1 mps 754 mmHg 90%
06:00 +27°C° 0 mm 1 mps 754 mmHg 79%
07:00 +29°C° 0 mm 1 mps 754 mmHg 68%
08:00 +32°C° 0 mm 1 mps 755 mmHg 58%
09:00 +33°C° 0 mm 1 mps 754 mmHg 51%
10:00 +36°C° 0 mm 2 mps 754 mmHg 44%
11:00 +38°C° 0 mm 2 mps 754 mmHg 37%
12:00 +38°C° 0 mm 4 mps 753 mmHg 36%
13:00 +40°C° 0 mm 5 mps 753 mmHg 35%
14:00 +40°C° 0 mm 6 mps 752 mmHg 34%
15:00 +38°C° 0 mm 6 mps 753 mmHg 41%
16:00 +36°C° 0 mm 6 mps 753 mmHg 48%
17:00 +34°C° 0 mm 7 mps 753 mmHg 54%
18:00 +32°C° 0 mm 5 mps 754 mmHg 63%
19:00 +30°C° 0 mm 4 mps 754 mmHg 72%
20:00 +28°C° 0 mm 3 mps 755 mmHg 81%
21:00 +28°C° 0.1 mm 2 mps 755 mmHg 84%
22:00 +27°C° 0.1 mm 1 mps 755 mmHg 86%
23:00 +27°C° 0.1 mm 1 mps 755 mmHg 89%

16 June, Wednesday

Time Temperature Precipitation Wind Pressure Humidity
00:00 +25°C° 0.1 mm 0 mps 755 mmHg 89%
01:00 +25°C° 0.1 mm 0 mps 755 mmHg 89%
02:00 +24°C° 0.1 mm 0 mps 754 mmHg 89%
03:00 +24°C° 0 mm 0 mps 754 mmHg 89%
04:00 +24°C° 0 mm 0 mps 754 mmHg 89%
05:00 +24°C° 0 mm 0 mps 754 mmHg 89%
06:00 +28°C° 0 mm 1 mps 755 mmHg 79%
07:00 +30°C° 0 mm 1 mps 755 mmHg 69%
08:00 +32°C° 0 mm 1 mps 755 mmHg 59%
09:00 +34°C° 0.1 mm 2 mps 755 mmHg 53%
10:00 +36°C° 0.1 mm 3 mps 754 mmHg 47%
11:00 +37°C° 0.1 mm 5 mps 754 mmHg 41%
12:00 +37°C° 0 mm 5 mps 754 mmHg 40%
13:00 +38°C° 0 mm 6 mps 753 mmHg 40%
14:00 +38°C° 0 mm 7 mps 753 mmHg 39%
15:00 +36°C° 0 mm 7 mps 753 mmHg 44%
16:00 +34°C° 0 mm 6 mps 753 mmHg 49%
17:00 +33°C° 0 mm 6 mps 753 mmHg 54%
18:00 +32°C° 0.2 mm 5 mps 754 mmHg 62%
19:00 +29°C° 0.2 mm 4 mps 754 mmHg 70%
20:00 +27°C° 0.2 mm 2 mps 755 mmHg 78%
21:00 +27°C° 1 mm 2 mps 755 mmHg 82%
22:00 +26°C° 1 mm 1 mps 755 mmHg 86%
23:00 +24°C° 1 mm 0 mps 755 mmHg 89%

17 June, Thursday

Time Temperature Precipitation Wind Pressure Humidity
00:00 +24°C° 1.1 mm 0 mps 755 mmHg 89%
01:00 +24°C° 1.1 mm 0 mps 754 mmHg 89%
02:00 +24°C° 1.1 mm 0 mps 754 mmHg 89%
03:00 +24°C° 0.9 mm 0 mps 754 mmHg 89%
04:00 +23°C° 0.9 mm 0 mps 754 mmHg 90%
05:00 +23°C° 0.9 mm 0 mps 754 mmHg 90%
06:00 +27°C° 0.5 mm 1 mps 754 mmHg 81%
07:00 +29°C° 0.5 mm 1 mps 755 mmHg 72%
08:00 +30°C° 0.5 mm 2 mps 755 mmHg 63%
09:00 +32°C° 0 mm 2 mps 755 mmHg 57%
10:00 +34°C° 0 mm 3 mps 754 mmHg 50%
11:00 +36°C° 0 mm 4 mps 754 mmHg 43%
12:00 +36°C° 0 mm 5 mps 754 mmHg 43%
13:00 +36°C° 0 mm 6 mps 753 mmHg 43%
14:00 +35°C° 0 mm 6 mps 753 mmHg 43%
15:00 +34°C° 0 mm 6 mps 753 mmHg 48%
16:00 +34°C° 0 mm 6 mps 753 mmHg 52%
17:00 +33°C° 0 mm 6 mps 753 mmHg 57%
18:00 +30°C° 0.5 mm 5 mps 753 mmHg 66%
19:00 +28°C° 0.5 mm 3 mps 754 mmHg 76%
20:00 +26°C° 0.5 mm 2 mps 754 mmHg 86%
21:00 +26°C° 1.5 mm 2 mps 754 mmHg 88%
22:00 +26°C° 1.5 mm 2 mps 754 mmHg 90%
23:00 +25°C° 1.5 mm 1 mps 754 mmHg 91%

18 June, Friday

Time Temperature Precipitation Wind Pressure Humidity
00:00 +25°C° 1.2 mm 2 mps 754 mmHg 92%
01:00 +25°C° 1.2 mm 2 mps 753 mmHg 92%
02:00 +25°C° 1.2 mm 2 mps 753 mmHg 93%
03:00 +25°C° 1 mm 2 mps 753 mmHg 92%
04:00 +25°C° 1 mm 2 mps 753 mmHg 92%
05:00 +25°C° 1 mm 2 mps 753 mmHg 92%
06:00 +26°C° 1.7 mm 3 mps 753 mmHg 87%
07:00 +28°C° 1.7 mm 3 mps 754 mmHg 81%
08:00 +29°C° 1.7 mm 4 mps 754 mmHg 75%
09:00 +30°C° 1.8 mm 4 mps 754 mmHg 72%
10:00 +32°C° 1.8 mm 4 mps 754 mmHg 69%
11:00 +32°C° 1.8 mm 5 mps 753 mmHg 66%
12:00 +33°C° 1.3 mm 5 mps 753 mmHg 65%
13:00 +33°C° 1.3 mm 5 mps 753 mmHg 65%
14:00 +33°C° 1.3 mm 5 mps 752 mmHg 64%
15:00 +32°C° 0.9 mm 5 mps 752 mmHg 68%
16:00 +30°C° 0.9 mm 5 mps 752 mmHg 73%
17:00 +29°C° 0.9 mm 4 mps 752 mmHg 77%
18:00 +29°C° 0.4 mm 4 mps 753 mmHg 80%
19:00 +28°C° 0.4 mm 3 mps 753 mmHg 84%
20:00 +27°C° 0.4 mm 2 mps 753 mmHg 87%
21:00 +27°C° 1.3 mm 2 mps 753 mmHg 89%
22:00 +26°C° 1.3 mm 2 mps 754 mmHg 90%
23:00 +26°C° 1.3 mm 2 mps 754 mmHg 91%
Show more